2023/02/06 00:00:00,19.4,-3.0
2023/02/06 00:10:00,19.3,-3.0
2023/02/06 00:20:00,19.3,-2.8
2023/02/06 00:30:00,19.3,-2.8
2023/02/06 00:40:00,19.3,-2.8
2023/02/06 00:50:00,19.2,-3.5
2023/02/06 01:00:00,19.3,-3.2
2023/02/06 01:10:00,19.3,-3.4
2023/02/06 01:20:00,19.2,-3.5
2023/02/06 01:30:00,19.2,-3.5
2023/02/06 01:40:00,19.2,-3.6
2023/02/06 01:50:00,19.2,-3.0
2023/02/06 02:00:00,19.2,-2.8
2023/02/06 02:10:00,19.2,-3.5
2023/02/06 02:20:00,19.2,-2.8
2023/02/06 02:30:00,19.2,-3.3
2023/02/06 02:40:00,19.2,-3.8
2023/02/06 02:50:00,19.2,-3.5
2023/02/06 03:00:00,19.2,-3.6
2023/02/06 03:10:00,19.2,-2.8
2023/02/06 03:20:00,19.2,-2.9
2023/02/06 03:30:00,19.2,-2.5
2023/02/06 03:40:00,19.2,-3.2
2023/02/06 03:50:00,19.1,-3.0
2023/02/06 04:00:00,19.1,-2.8
2023/02/06 04:10:00,19.1,-3.3
2023/02/06 04:20:00,19.2,-3.2
2023/02/06 04:30:00,19.2,-2.9
2023/02/06 04:40:00,19.2,-3.1
2023/02/06 04:50:00,19.2,-3.0
2023/02/06 05:00:00,19.2,-4.0
2023/02/06 05:10:00,19.2,-3.2
2023/02/06 05:20:00,19.2,-2.9
2023/02/06 05:30:00,19.2,-3.0
2023/02/06 05:40:00,19.2,-3.2
2023/02/06 05:50:00,19.2,-2.7
2023/02/06 06:00:00,19.2,-2.5
2023/02/06 06:10:00,19.2,-2.6
2023/02/06 06:20:00,19.2,-2.8
2023/02/06 06:30:00,19.2,-3.0
2023/02/06 06:40:00,19.2,-3.5
2023/02/06 06:50:00,19.2,-3.4
2023/02/06 07:00:00,19.2,-2.6
2023/02/06 07:10:00,19.3,-2.2
2023/02/06 07:20:00,19.2,-2.4
2023/02/06 07:30:00,19.3,-2.4
2023/02/06 07:40:00,19.4,-2.3
2023/02/06 07:50:00,19.4,-1.6
2023/02/06 08:00:00,19.4,-1.0
2023/02/06 08:10:00,19.5,-1.1
2023/02/06 08:20:00,19.8, 0.5
2023/02/06 08:30:00,20.0, 1.1
2023/02/06 08:40:00,19.9, 2.4
2023/02/06 08:50:00,19.6, 3.1
2023/02/06 09:00:00,19.7, 3.9
2023/02/06 09:10:00,19.6, 4.4
2023/02/06 09:20:00,19.5, 4.7
2023/02/06 09:30:00,19.7, 6.8
2023/02/06 09:40:00,20.0, 9.4
2023/02/06 09:50:00,20.1,10.6
2023/02/06 10:00:00,20.0,12.6
2023/02/06 10:10:00,20.0,16.5
2023/02/06 10:20:00,19.9,18.0
2023/02/06 10:30:00,20.1,17.6
2023/02/06 10:40:00,20.1,17.6
2023/02/06 10:50:00,19.8,16.2
2023/02/06 11:00:00,19.5,14.9
2023/02/06 11:10:00,19.4,14.0
2023/02/06 11:20:00,19.4,13.4
2023/02/06 11:30:00,19.2,12.5
2023/02/06 11:40:00,19.4,12.7
2023/02/06 11:50:00,19.1,12.2
2023/02/06 12:00:00,19.1,12.2
2023/02/06 12:10:00,19.0,11.6
2023/02/06 12:20:00,19.1,11.7
2023/02/06 12:30:00,19.0,11.3
2023/02/06 12:40:00,18.9,11.4
2023/02/06 12:50:00,18.6,10.8
2023/02/06 13:00:00,18.4,10.9
2023/02/06 13:10:00,18.4,10.5
2023/02/06 13:20:00,18.3,10.1
2023/02/06 13:30:00,18.1,10.3
2023/02/06 13:40:00,18.1,10.0
2023/02/06 13:50:00,18.1, 9.5
2023/02/06 14:00:00,17.8, 8.5
2023/02/06 14:10:00,17.9, 9.2
2023/02/06 14:20:00,17.8, 9.0
2023/02/06 14:30:00,17.7, 7.8
2023/02/06 14:40:00,17.7, 7.4
2023/02/06 14:50:00,17.5, 6.3
2023/02/06 15:00:00,17.5, 6.6
2023/02/06 15:10:00,17.3, 6.1
2023/02/06 15:20:00,17.3, 6.0
2023/02/06 15:30:00,17.3, 5.5
2023/02/06 15:40:00,17.2, 5.0
2023/02/06 15:50:00,17.1, 4.5
2023/02/06 16:00:00,17.2, 4.2
2023/02/06 16:10:00,17.3, 3.9
2023/02/06 16:20:00,17.2, 3.5
2023/02/06 16:30:00,17.2, 3.3
2023/02/06 16:40:00,17.4, 2.9
2023/02/06 16:50:00,17.2, 2.9
2023/02/06 17:00:00,17.0, 2.4
2023/02/06 17:10:00,16.9, 2.3
2023/02/06 17:20:00,16.8, 1.9
2023/02/06 17:30:00,16.8, 1.7
2023/02/06 17:40:00,16.7, 1.5
2023/02/06 17:50:00,16.7, 1.3
2023/02/06 18:00:00,16.7, 1.3
2023/02/06 18:10:00,16.6, 1.2
2023/02/06 18:20:00,16.7, 1.4
2023/02/06 18:30:00,16.7, 1.0
2023/02/06 18:40:00,16.7, 0.9
2023/02/06 18:50:00,16.7, 1.0
2023/02/06 19:00:00,16.8, 0.9
2023/02/06 19:10:00,16.8, 0.9
2023/02/06 19:20:00,16.8, 0.8
2023/02/06 19:30:00,16.7, 0.8
2023/02/06 19:40:00,16.7, 0.6
2023/02/06 19:50:00,16.7, 0.7
2023/02/06 20:00:00,16.7, 0.7
2023/02/06 20:10:00,16.6, 1.2
2023/02/06 20:20:00,16.6, 0.5
2023/02/06 20:30:00,16.6, 0.8
2023/02/06 20:40:00,16.6, 0.7
2023/02/06 20:50:00,16.6, 0.5
2023/02/06 21:00:00,16.6, 0.7
2023/02/06 21:10:00,16.6, 0.7
2023/02/06 21:20:00,16.6, 0.4
2023/02/06 21:30:00,16.5, 0.5
2023/02/06 21:40:00,16.4, 0.4
2023/02/06 21:50:00,16.4, 0.5
2023/02/06 22:00:00,16.4, 0.8
2023/02/06 22:10:00,16.4, 0.9
2023/02/06 22:20:00,16.4, 0.9
2023/02/06 22:30:00,16.4, 0.7
2023/02/06 22:40:00,16.4, 1.0
2023/02/06 22:50:00,16.4, 0.4
2023/02/06 23:00:00,16.3, 0.5
2023/02/06 23:10:00,16.3, 0.7
2023/02/06 23:20:00,16.3, 0.5
2023/02/06 23:30:00,16.2, 0.5
2023/02/06 23:40:00,16.2, 0.9
2023/02/06 23:50:00,16.2, 0.4
